• In Deutschland
  • Länderverzeichnis
  • Für 7 Tage
  • Wassertemperatur
  • Satellitenkarten
  • Wetterkarte
  • Widgets
  • user-avatar
    Anmelden

    Stündliche Wetter Königsbrunn

    Heute, 26 September, Mittwoch

    Zeit Temperatur Niederschläge Wind Luftdruck Luftfeuchtigkeit
    00:00 +2°C° 0 mm 3 m/S 730 mmHg 78%
    01:00 +3°C° 0 mm 2 m/S 730 mmHg 76%
    02:00 +3°C° 0 mm 2 m/S 729 mmHg 76%
    03:00 +2°C° 0 mm 2 m/S 729 mmHg 77%
    04:00 +2°C° 0 mm 2 m/S 729 mmHg 77%
    05:00 +2°C° 0 mm 2 m/S 729 mmHg 76%
    06:00 +2°C° 0 mm 2 m/S 729 mmHg 74%
    07:00 +3°C° 0 mm 2 m/S 729 mmHg 71%
    08:00 +6°C° 0 mm 2 m/S 728 mmHg 63%
    09:00 +9°C° 0 mm 1 m/S 728 mmHg 56%
    10:00 +12°C° 0 mm 1 m/S 728 mmHg 49%
    11:00 +14°C° 0 mm 1 m/S 728 mmHg 47%
    12:00 +15°C° 0 mm 1 m/S 728 mmHg 44%
    13:00 +18°C° 0 mm 1 m/S 728 mmHg 42%
    14:00 +18°C° 0 mm 1 m/S 728 mmHg 45%
    15:00 +18°C° 0 mm 1 m/S 728 mmHg 48%
    16:00 +18°C° 0 mm 1 m/S 728 mmHg 51%
    17:00 +15°C° 0 mm 1 m/S 728 mmHg 58%
    18:00 +13°C° 0 mm 1 m/S 728 mmHg 65%
    19:00 +9°C° 0 mm 0 m/S 728 mmHg 72%
    20:00 +10°C° 0 mm 1 m/S 728 mmHg 73%
    21:00 +9°C° 0 mm 1 m/S 728 mmHg 75%
    22:00 +9°C° 0 mm 1 m/S 728 mmHg 76%
    23:00 +9°C° 0 mm 1 m/S 728 mmHg 77%

    Morgen, 27 September, Donnerstag

    Zeit Temperatur Niederschläge Wind Luftdruck Luftfeuchtigkeit
    00:00 +8°C° 0 mm 1 m/S 728 mmHg 77%
    01:00 +8°C° 0 mm 1 m/S 728 mmHg 78%
    02:00 +8°C° 0 mm 1 m/S 728 mmHg 77%
    03:00 +8°C° 0 mm 1 m/S 728 mmHg 76%
    04:00 +8°C° 0 mm 1 m/S 727 mmHg 75%
    05:00 +8°C° 0 mm 1 m/S 727 mmHg 74%
    06:00 +8°C° 0 mm 1 m/S 727 mmHg 72%
    07:00 +8°C° 0 mm 1 m/S 727 mmHg 71%
    08:00 +11°C° 0 mm 1 m/S 727 mmHg 65%
    09:00 +14°C° 0 mm 1 m/S 727 mmHg 58%
    10:00 +16°C° 0 mm 0 m/S 727 mmHg 52%
    11:00 +19°C° 0 mm 1 m/S 726 mmHg 50%
    12:00 +20°C° 0 mm 1 m/S 726 mmHg 47%
    13:00 +21°C° 0 mm 1 m/S 726 mmHg 45%
    14:00 +21°C° 0 mm 1 m/S 725 mmHg 48%
    15:00 +21°C° 0 mm 1 m/S 725 mmHg 52%
    16:00 +21°C° 0 mm 1 m/S 724 mmHg 56%
    17:00 +19°C° 0 mm 1 m/S 724 mmHg 62%
    18:00 +15°C° 0 mm 1 m/S 723 mmHg 69%
    19:00 +13°C° 0 mm 1 m/S 723 mmHg 76%
    20:00 +12°C° 0 mm 1 m/S 723 mmHg 77%
    21:00 +12°C° 0 mm 1 m/S 723 mmHg 79%
    22:00 +10°C° 0 mm 2 m/S 722 mmHg 80%
    23:00 +10°C° 0 mm 2 m/S 722 mmHg 81%

    übermorgen, 28 September, Freitag

    Zeit Temperatur Niederschläge Wind Luftdruck Luftfeuchtigkeit
    00:00 +10°C° 0 mm 2 m/S 722 mmHg 82%
    01:00 +9°C° 0 mm 2 m/S 722 mmHg 82%
    02:00 +9°C° 0 mm 2 m/S 721 mmHg 82%
    03:00 +9°C° 0 mm 2 m/S 721 mmHg 81%
    04:00 +9°C° 0 mm 2 m/S 720 mmHg 81%
    05:00 +9°C° 0 mm 2 m/S 720 mmHg 80%
    06:00 +9°C° 0 mm 2 m/S 720 mmHg 79%
    07:00 +9°C° 0 mm 2 m/S 720 mmHg 79%
    08:00 +13°C° 0 mm 2 m/S 720 mmHg 73%
    09:00 +15°C° 0 mm 2 m/S 720 mmHg 68%
    10:00 +17°C° 0 mm 2 m/S 721 mmHg 62%
    11:00 +18°C° 0 mm 2 m/S 720 mmHg 60%
    12:00 +19°C° 0 mm 2 m/S 720 mmHg 58%
    13:00 +20°C° 0 mm 2 m/S 720 mmHg 56%
    14:00 +20°C° 0 mm 2 m/S 720 mmHg 58%
    15:00 +19°C° 0 mm 2 m/S 719 mmHg 60%
    16:00 +19°C° 0 mm 2 m/S 719 mmHg 62%
    17:00 +17°C° 0 mm 2 m/S 719 mmHg 68%
    18:00 +15°C° 0 mm 2 m/S 719 mmHg 74%
    19:00 +13°C° 0 mm 2 m/S 720 mmHg 79%
    20:00 +12°C° 0 mm 2 m/S 720 mmHg 80%
    21:00 +11°C° 0 mm 3 m/S 721 mmHg 82%
    22:00 +10°C° 0 mm 3 m/S 721 mmHg 83%
    23:00 +10°C° 0.1 mm 3 m/S 721 mmHg 85%

    29 September, Samstag

    Zeit Temperatur Niederschläge Wind Luftdruck Luftfeuchtigkeit
    00:00 +9°C° 0.1 mm 2 m/S 721 mmHg 87%
    01:00 +8°C° 0.1 mm 2 m/S 721 mmHg 89%
    02:00 +7°C° 0 mm 2 m/S 721 mmHg 88%
    03:00 +7°C° 0 mm 2 m/S 722 mmHg 88%
    04:00 +6°C° 0 mm 2 m/S 722 mmHg 87%
    05:00 +6°C° 0 mm 2 m/S 722 mmHg 87%
    06:00 +5°C° 0 mm 2 m/S 722 mmHg 88%
    07:00 +5°C° 0 mm 2 m/S 723 mmHg 88%
    08:00 +7°C° 0 mm 3 m/S 723 mmHg 81%
    09:00 +9°C° 0 mm 3 m/S 723 mmHg 73%
    10:00 +10°C° 0 mm 4 m/S 723 mmHg 66%
    11:00 +11°C° 0 mm 4 m/S 723 mmHg 63%
    12:00 +12°C° 0 mm 4 m/S 723 mmHg 61%
    13:00 +13°C° 0 mm 4 m/S 723 mmHg 59%
    14:00 +13°C° 0 mm 4 m/S 723 mmHg 59%
    15:00 +13°C° 0 mm 4 m/S 722 mmHg 60%
    16:00 +13°C° 0 mm 4 m/S 722 mmHg 61%
    17:00 +11°C° 0 mm 4 m/S 722 mmHg 66%
    18:00 +9°C° 0 mm 3 m/S 722 mmHg 70%
    19:00 +8°C° 0 mm 3 m/S 722 mmHg 75%
    20:00 +7°C° 0 mm 3 m/S 722 mmHg 76%
    21:00 +7°C° 0 mm 3 m/S 722 mmHg 77%
    22:00 +5°C° 0 mm 3 m/S 722 mmHg 78%
    23:00 +5°C° 0 mm 3 m/S 722 mmHg 79%

    30 September, Sonntag

    Zeit Temperatur Niederschläge Wind Luftdruck Luftfeuchtigkeit
    00:00 +4°C° 0 mm 3 m/S 721 mmHg 80%
    01:00 +4°C° 0 mm 3 m/S 721 mmHg 81%
    02:00 +3°C° 0 mm 3 m/S 720 mmHg 83%
    03:00 +3°C° 0 mm 3 m/S 720 mmHg 85%
    04:00 +3°C° 0 mm 3 m/S 720 mmHg 87%
    05:00 +4°C° 0 mm 2 m/S 720 mmHg 87%
    06:00 +4°C° 0 mm 2 m/S 719 mmHg 88%
    07:00 +4°C° 0 mm 2 m/S 719 mmHg 88%
    08:00 +6°C° 0 mm 2 m/S 719 mmHg 80%
    09:00 +9°C° 0 mm 2 m/S 719 mmHg 72%
    10:00 +13°C° 0 mm 2 m/S 719 mmHg 65%
    11:00 +14°C° 0 mm 2 m/S 718 mmHg 62%
    12:00 +15°C° 0 mm 2 m/S 718 mmHg 60%
    13:00 +17°C° 0 mm 2 m/S 718 mmHg 57%
    14:00 +17°C° 0 mm 2 m/S 717 mmHg 59%
    15:00 +17°C° 0 mm 2 m/S 717 mmHg 62%
    16:00 +18°C° 0 mm 1 m/S 717 mmHg 64%
    17:00 +15°C° 0 mm 1 m/S 717 mmHg 71%
    18:00 +13°C° 0 mm 1 m/S 716 mmHg 78%
    19:00 +11°C° 0 mm 1 m/S 716 mmHg 86%
    20:00 +11°C° 0 mm 1 m/S 716 mmHg 87%
    21:00 +10°C° 0 mm 1 m/S 716 mmHg 89%
    22:00 +10°C° 0 mm 1 m/S 715 mmHg 90%
    23:00 +10°C° 0 mm 1 m/S 715 mmHg 90%

    1 Oktober, Montag

    Zeit Temperatur Niederschläge Wind Luftdruck Luftfeuchtigkeit
    00:00 +10°C° 0 mm 1 m/S 715 mmHg 90%
    01:00 +10°C° 0 mm 1 m/S 714 mmHg 90%
    02:00 +10°C° 0 mm 1 m/S 714 mmHg 90%
    03:00 +9°C° 0 mm 1 m/S 714 mmHg 91%
    04:00 +9°C° 0 mm 1 m/S 714 mmHg 91%
    05:00 +9°C° 0.3 mm 2 m/S 714 mmHg 92%
    06:00 +9°C° 0.3 mm 2 m/S 714 mmHg 93%
    07:00 +9°C° 0.3 mm 2 m/S 714 mmHg 93%
    08:00 +10°C° 0.3 mm 2 m/S 715 mmHg 89%
    09:00 +10°C° 0.3 mm 3 m/S 715 mmHg 85%
    10:00 +11°C° 0.3 mm 3 m/S 715 mmHg 81%
    11:00 +12°C° 0.1 mm 3 m/S 715 mmHg 76%
    12:00 +12°C° 0.1 mm 3 m/S 715 mmHg 70%
    13:00 +13°C° 0.1 mm 3 m/S 715 mmHg 65%
    14:00 +13°C° 0.1 mm 3 m/S 716 mmHg 66%
    15:00 +13°C° 0.1 mm 3 m/S 716 mmHg 67%
    16:00 +13°C° 0.1 mm 2 m/S 716 mmHg 69%
    17:00 +12°C° 0 mm 2 m/S 716 mmHg 70%
    18:00 +10°C° 0 mm 2 m/S 716 mmHg 72%
    19:00 +9°C° 0 mm 2 m/S 717 mmHg 74%
    20:00 +8°C° 0 mm 2 m/S 717 mmHg 77%
    21:00 +7°C° 0 mm 2 m/S 717 mmHg 79%
    22:00 +7°C° 0 mm 2 m/S 718 mmHg 81%
    23:00 +6°C° 0 mm 2 m/S 717 mmHg 85%
    Mehr zeigen